| time (UTC) | temp F | wind direction | speed MPH | gust MPH | rain 1hr in | rain 24hr in | rain mn in | humidity % | barometer mb |
| 20260502235004 | 81 | 291 | 2.0 | 3.0 | 0.00 | 0.00 | 0.00 | 12 | 1011.7 |
| 20260502234503 | 81 | 117 | 0.0 | 2.0 | 0.00 | 0.00 | 0.00 | 12 | 1011.8 |
| 20260502234004 | 81 | 109 | 1.0 | 4.0 | 0.00 | 0.00 | 0.00 | 11 | 1011.8 |
| 20260502233503 | 81 | 280 | 0.0 | 4.0 | 0.00 | 0.00 | 0.00 | 12 | 1011.9 |
| 20260502233002 | 81 | 125 | 0.0 | 4.0 | 0.00 | 0.00 | 0.00 | 13 | 1011.9 |
| 20260502232504 | 81 | 33 | 0.0 | 2.0 | 0.00 | 0.00 | 0.00 | 12 | 1012.0 |
| 20260502232001 | 81 | 129 | 0.0 | 3.0 | 0.00 | 0.00 | 0.00 | 11 | 1012.0 |
| 20260502231601 | 80 | 126 | 0.0 | 3.0 | 0.00 | 0.00 | 0.00 | 11 | 1012.0 |
| 20260502231100 | 80 | 82 | 0.0 | 3.0 | 0.00 | 0.00 | 0.00 | 13 | 1012.0 |
| 20260502230600 | 81 | 61 | 0.0 | 2.0 | 0.00 | 0.00 | 0.00 | 12 | 1012.1 |
| 20260502230059 | 80 | 120 | 0.0 | 2.0 | 0.00 | 0.00 | 0.00 | 13 | 1012.1 |
| 20260502225557 | 80 | 126 | 1.0 | 3.0 | 0.00 | 0.00 | 0.00 | 13 | 1012.2 |
| 20260502225057 | 80 | 115 | 1.0 | 3.0 | 0.00 | 0.00 | 0.00 | 13 | 1012.3 |
| 20260502224603 | 81 | 111 | 0.0 | 4.0 | 0.00 | 0.00 | 0.00 | 12 | 1012.3 |
| 20260502224055 | 81 | 105 | 2.0 | 4.0 | 0.00 | 0.00 | 0.00 | 12 | 1012.4 |
| 20260502223554 | 81 | 112 | 0.0 | 3.0 | 0.00 | 0.00 | 0.00 | 13 | 1012.4 |
| 20260502223053 | 81 | 49 | 1.0 | 3.0 | 0.00 | 0.00 | 0.00 | 13 | 1012.6 |
| 20260502222553 | 81 | 118 | 1.0 | 4.0 | 0.00 | 0.00 | 0.00 | 13 | 1012.7 |
| 20260502222052 | 81 | 100 | 2.0 | 4.0 | 0.00 | 0.00 | 0.00 | 15 | 1012.7 |
| 20260502221552 | 81 | 117 | 0.0 | 5.0 | 0.00 | 0.00 | 0.00 | 15 | 1012.8 |
| 20260502221051 | 81 | 137 | 2.0 | 6.0 | 0.00 | 0.00 | 0.00 | 15 | 1012.8 |
| 20260502220550 | 81 | 37 | 1.0 | 6.0 | 0.00 | 0.00 | 0.00 | 16 | 1012.9 |
| 20260502220050 | 81 | 27 | 1.0 | 5.0 | 0.00 | 0.00 | 0.00 | 14 | 1012.9 |
| 20260502215549 | 81 | 131 | 1.0 | 7.0 | 0.00 | 0.00 | 0.00 | 14 | 1013.0 |
| 20260502215048 | 81 | 124 | 2.0 | 7.0 | 0.00 | 0.00 | 0.00 | 14 | 1013.0 |
| 20260502214548 | 81 | 106 | 2.0 | 4.0 | 0.00 | 0.00 | 0.00 | 15 | 1013.2 |
| 20260502214046 | 81 | 91 | 1.0 | 5.0 | 0.00 | 0.00 | 0.00 | 15 | 1013.3 |
| 20260502213545 | 81 | 117 | 2.0 | 5.0 | 0.00 | 0.00 | 0.00 | 16 | 1013.3 |
| 20260502213047 | 81 | 125 | 3.0 | 5.0 | 0.00 | 0.00 | 0.00 | 17 | 1013.4 |
| 20260502212545 | 81 | 41 | 1.0 | 4.0 | 0.00 | 0.00 | 0.00 | 17 | 1013.5 |
| 20260502212044 | 80 | 128 | 2.0 | 6.0 | 0.00 | 0.00 | 0.00 | 18 | 1013.6 |
| 20260502211544 | 80 | 139 | 3.0 | 6.0 | 0.00 | 0.00 | 0.00 | 17 | 1013.6 |
| 20260502211047 | 80 | 110 | 1.0 | 4.0 | 0.00 | 0.00 | 0.00 | 17 | 1013.7 |
| 20260502210544 | 81 | 103 | 1.0 | 4.0 | 0.00 | 0.00 | 0.00 | 16 | 1013.6 |
| 20260502210056 | 81 | 117 | 2.0 | 4.0 | 0.00 | 0.00 | 0.00 | 17 | 1013.7 |
| 20260502205542 | 81 | 269 | 0.0 | 2.0 | 0.00 | 0.00 | 0.00 | 15 | 1013.8 |
| 20260502205042 | 81 | 276 | 1.0 | 4.0 | 0.00 | 0.00 | 0.00 | 14 | 1013.8 |
| 20260502204546 | 81 | 120 | 1.0 | 6.0 | 0.00 | 0.00 | 0.00 | 14 | 1014.0 |
| 20260502204040 | 81 | 143 | 2.0 | 6.0 | 0.00 | 0.00 | 0.00 | 14 | 1013.9 |
| 20260502203538 | 80 | 89 | 2.0 | 6.0 | 0.00 | 0.00 | 0.00 | 15 | 1014.1 |
| 20260502203038 | 80 | 106 | 3.0 | 7.0 | 0.00 | 0.00 | 0.00 | 16 | 1014.1 |
| 20260502202537 | 80 | 108 | 2.0 | 7.0 | 0.00 | 0.00 | 0.00 | 15 | 1014.2 |
| 20260502202037 | 81 | 72 | 2.0 | 5.0 | 0.00 | 0.00 | 0.00 | 16 | 1014.2 |
| 20260502201545 | 80 | 108 | 2.0 | 5.0 | 0.00 | 0.00 | 0.00 | 16 | 1014.3 |
| 20260502201035 | 80 | 112 | 3.0 | 6.0 | 0.00 | 0.00 | 0.00 | 18 | 1014.3 |
| 20260502200535 | 80 | 41 | 2.0 | 6.0 | 0.00 | 0.00 | 0.00 | 17 | 1014.4 |
| 20260502200033 | 80 | 108 | 1.0 | 6.0 | 0.00 | 0.00 | 0.00 | 16 | 1014.4 |
| 20260502195532 | 80 | 101 | 3.0 | 6.0 | 0.00 | 0.00 | 0.00 | 18 | 1014.4 |
| 20260502195030 | 79 | 94 | 1.0 | 6.0 | 0.00 | 0.00 | 0.00 | 18 | 1014.5 |
| 20260502194530 | 79 | 110 | 2.0 | 6.0 | 0.00 | 0.00 | 0.00 | 18 | 1014.6 |
| 20260502194029 | 79 | 72 | 2.0 | 5.0 | 0.00 | 0.00 | 0.00 | 21 | 1014.6 |
| 20260502193527 | 78 | 135 | 1.0 | 4.0 | 0.00 | 0.00 | 0.00 | 22 | 1014.7 |
| 20260502193026 | 77 | 115 | 1.0 | 4.0 | 0.00 | 0.00 | 0.00 | 23 | 1014.8 |
| 20260502192525 | 77 | 109 | 2.0 | 4.0 | 0.00 | 0.00 | 0.00 | 23 | 1014.9 |
| 20260502192023 | 76 | 135 | 0.0 | 3.0 | 0.00 | 0.00 | 0.00 | 24 | 1015.0 |
| 20260502191522 | 75 | 130 | 0.0 | 4.0 | 0.00 | 0.00 | 0.00 | 28 | 1015.0 |
| 20260502191020 | 75 | 96 | 1.0 | 4.0 | 0.00 | 0.00 | 0.00 | 27 | 1015.2 |
| 20260502190519 | 74 | 115 | 0.0 | 2.0 | 0.00 | 0.00 | 0.00 | 28 | 1015.2 |
| 20260502190017 | 74 | 131 | 0.0 | 3.0 | 0.00 | 0.00 | 0.00 | 29 | 1015.3 |
| 20260502185517 | 74 | 303 | 1.0 | 3.0 | 0.00 | 0.00 | 0.00 | 28 | 1015.4 |
| 20260502185016 | 73 | 159 | 0.0 | 3.0 | 0.00 | 0.00 | 0.00 | 30 | 1015.5 |
| 20260502184525 | 72 | 130 | 1.0 | 3.0 | 0.00 | 0.00 | 0.00 | 30 | 1015.6 |
| 20260502184012 | 71 | 124 | 1.0 | 4.0 | 0.00 | 0.00 | 0.00 | 32 | 1015.6 |
| 20260502183512 | 70 | 304 | 1.0 | 4.0 | 0.00 | 0.00 | 0.00 | 32 | 1015.7 |
| 20260502183025 | 70 | 283 | 1.0 | 3.0 | 0.00 | 0.00 | 0.00 | 33 | 1015.8 |
| 20260502182509 | 69 | 280 | 0.0 | 4.0 | 0.00 | 0.00 | 0.00 | 33 | 1015.9 |
| 20260502182006 | 69 | 291 | 1.0 | 4.0 | 0.00 | 0.00 | 0.00 | 34 | 1015.9 |
| 20260502181505 | 68 | 290 | 2.0 | 4.0 | 0.00 | 0.00 | 0.00 | 35 | 1016.0 |
| 20260502181004 | 68 | 295 | 1.0 | 4.0 | 0.00 | 0.00 | 0.00 | 36 | 1016.1 |
| 20260502180503 | 67 | 280 | 1.0 | 4.0 | 0.00 | 0.00 | 0.00 | 36 | 1016.1 |
| 20260502164044 | 61 | 275 | 1.0 | 3.0 | 0.00 | 0.00 | 0.00 | 45 | 1016.6 |
| 20260502163543 | 61 | 283 | 1.0 | 4.0 | 0.00 | 0.00 | 0.00 | 45 | 1016.6 |
| 20260502163052 | 60 | 300 | 1.0 | 4.0 | 0.00 | 0.00 | 0.00 | 46 | 1016.7 |
| 20260502162540 | 59 | 300 | 1.0 | 4.0 | 0.00 | 0.00 | 0.00 | 48 | 1016.7 |
| 20260502162038 | 59 | 291 | 2.0 | 8.0 | 0.00 | 0.00 | 0.00 | 49 | 1016.9 |
| 20260502161538 | 58 | 297 | 2.0 | 8.0 | 0.00 | 0.00 | 0.00 | 51 | 1016.9 |
| 20260502161038 | 58 | 307 | 2.0 | 7.0 | 0.00 | 0.00 | 0.00 | 53 | 1016.9 |
| 20260502160537 | 57 | 297 | 2.0 | 6.0 | 0.00 | 0.00 | 0.00 | 53 | 1016.9 |
| 20260502152025 | 54 | 298 | 0.0 | 2.0 | 0.00 | 0.00 | 0.00 | 58 | 1016.7 |
| 20260502151525 | 53 | 240 | 0.0 | 1.0 | 0.00 | 0.00 | 0.00 | 59 | 1016.7 |
| 20260502151026 | 53 | 231 | 0.0 | 1.0 | 0.00 | 0.00 | 0.00 | 59 | 1016.6 |
| 20260502150525 | 53 | 222 | 0.0 | 1.0 | 0.00 | 0.00 | 0.00 | 59 | 1016.7 |
| 20260502130515 | 51 | 209 | 0.0 | 0.0 | 0.00 | 0.00 | 0.00 | 57 | 1015.8 |
| 20260502123513 | 52 | 251 | 0.0 | 1.0 | 0.00 | 0.00 | 0.00 | 52 | 1015.6 |
| 20260502123021 | 52 | 252 | 0.0 | 1.0 | 0.00 | 0.00 | 0.00 | 51 | 1015.7 |
| 20260502122513 | 52 | 251 | 0.0 | 1.0 | 0.00 | 0.00 | 0.00 | 52 | 1015.8 |
| 20260502122013 | 53 | 251 | 0.0 | 1.0 | 0.00 | 0.00 | 0.00 | 51 | 1015.7 |
| 20260502121515 | 53 | 273 | 0.0 | 2.0 | 0.00 | 0.00 | 0.00 | 50 | 1015.7 |
| 20260502121014 | 53 | 273 | 0.0 | 2.0 | 0.00 | 0.00 | 0.00 | 49 | 1015.7 |
| 20260502120512 | 53 | 273 | 0.0 | 1.0 | 0.00 | 0.00 | 0.00 | 50 | 1015.7 |
| 20260502115511 | 53 | 273 | 0.0 | 1.0 | 0.00 | 0.00 | 0.00 | 49 | 1015.8 |
| 20260502115012 | 53 | 273 | 0.0 | 2.0 | 0.00 | 0.00 | 0.00 | 49 | 1015.8 |
| 20260502114511 | 53 | 273 | 0.0 | 2.0 | 0.00 | 0.00 | 0.00 | 49 | 1015.8 |
| 20260502114010 | 53 | 273 | 0.0 | 2.0 | 0.00 | 0.00 | 0.00 | 50 | 1015.9 |
| 20260502113512 | 53 | 273 | 0.0 | 2.0 | 0.00 | 0.00 | 0.00 | 50 | 1015.9 |
| 20260502113010 | 53 | 246 | 0.0 | 2.0 | 0.00 | 0.00 | 0.00 | 50 | 1015.9 |
| 20260502112510 | 53 | 245 | 0.0 | 1.0 | 0.00 | 0.00 | 0.00 | 50 | 1016.0 |
| 20260502112008 | 53 | 249 | 0.0 | 1.0 | 0.00 | 0.00 | 0.00 | 49 | 1016.0 |
| 20260502111516 | 53 | 291 | 0.0 | 2.0 | 0.00 | 0.00 | 0.00 | 49 | 1015.9 |
| 20260502111008 | 53 | 291 | 0.0 | 2.0 | 0.00 | 0.00 | 0.00 | 49 | 1016.0 |
| 20260502110508 | 53 | 291 | 0.0 | 2.0 | 0.00 | 0.00 | 0.00 | 49 | 1016.0 |
| 20260502110012 | 53 | 291 | 0.0 | 2.0 | 0.00 | 0.00 | 0.00 | 49 | 1016.1 |
| 20260502105510 | 53 | 291 | 0.0 | 2.0 | 0.00 | 0.00 | 0.00 | 49 | 1016.0 |
| 20260502105008 | 53 | 291 | 0.0 | 1.0 | 0.00 | 0.00 | 0.00 | 49 | 1016.0 |
| 20260502104507 | 53 | 292 | 0.0 | 0.0 | 0.00 | 0.00 | 0.00 | 49 | 1016.0 |
| 20260502104006 | 53 | 291 | 0.0 | 0.0 | 0.00 | 0.00 | 0.00 | 48 | 1016.0 |
| 20260502103504 | 54 | 291 | 0.0 | 1.0 | 0.00 | 0.00 | 0.00 | 48 | 1016.1 |
| 20260502103004 | 54 | 291 | 0.0 | 2.0 | 0.00 | 0.00 | 0.00 | 48 | 1016.1 |
| 20260502102504 | 54 | 291 | 0.0 | 2.0 | 0.00 | 0.00 | 0.00 | 48 | 1016.1 |
| 20260502102004 | 54 | 291 | 0.0 | 1.0 | 0.00 | 0.00 | 0.00 | 48 | 1016.1 |
| 20260502101503 | 54 | 291 | 0.0 | 1.0 | 0.00 | 0.00 | 0.00 | 47 | 1016.1 |
| 20260502101002 | 54 | 291 | 0.0 | 1.0 | 0.00 | 0.00 | 0.00 | 47 | 1016.2 |
| 20260502100505 | 54 | 291 | 0.0 | 2.0 | 0.00 | 0.00 | 0.00 | 47 | 1016.1 |
| 20260502091057 | 54 | 355 | 0.0 | 0.0 | 0.00 | 0.00 | 0.00 | 47 | 1016.0 |
| 20260502090557 | 54 | 356 | 0.0 | 0.0 | 0.00 | 0.00 | 0.00 | 47 | 1016.0 |
| 20260502090113 | 55 | 356 | 0.0 | 0.0 | 0.00 | 0.00 | 0.00 | 47 | 1016.1 |
| 20260502071040 | 53 | 98 | 0.0 | 1.0 | 0.00 | 0.00 | 0.00 | 52 | 1016.3 |
| 20260502070539 | 52 | 98 | 0.0 | 0.0 | 0.00 | 0.00 | 0.00 | 56 | 1016.3 |
| 20260502070037 | 52 | 98 | 0.0 | 1.0 | 0.00 | 0.00 | 0.00 | 57 | 1016.4 |
| 20260502065537 | 52 | 99 | 0.0 | 1.0 | 0.00 | 0.00 | 0.00 | 57 | 1016.4 |
| 20260502065035 | 53 | 99 | 0.0 | 1.0 | 0.00 | 0.00 | 0.00 | 56 | 1016.4 |
| 20260502064535 | 52 | 98 | 0.0 | 1.0 | 0.00 | 0.00 | 0.00 | 56 | 1016.3 |
| 20260502064033 | 52 | 75 | 0.0 | 0.0 | 0.00 | 0.00 | 0.00 | 58 | 1016.3 |
| 20260502063537 | 51 | 75 | 0.0 | 1.0 | 0.00 | 0.00 | 0.00 | 60 | 1016.3 |
| 20260502063032 | 51 | 75 | 0.0 | 1.0 | 0.00 | 0.00 | 0.00 | 60 | 1016.3 |
| 20260502062531 | 51 | 75 | 0.0 | 1.0 | 0.00 | 0.00 | 0.00 | 61 | 1016.3 |
| 20260502062030 | 51 | 75 | 0.0 | 1.0 | 0.00 | 0.00 | 0.00 | 61 | 1016.3 |
| 20260502061529 | 52 | 75 | 0.0 | 1.0 | 0.00 | 0.00 | 0.00 | 62 | 1016.3 |
| 20260502061028 | 52 | 75 | 0.0 | 1.0 | 0.00 | 0.00 | 0.00 | 61 | 1016.2 |
| 20260502060525 | 52 | 75 | 0.0 | 1.0 | 0.00 | 0.00 | 0.00 | 60 | 1016.2 |
| 20260502060024 | 52 | 75 | 0.0 | 1.0 | 0.00 | 0.00 | 0.00 | 60 | 1016.2 |
| 20260502055524 | 52 | 75 | 0.0 | 1.0 | 0.00 | 0.00 | 0.00 | 60 | 1016.2 |
| 20260502055026 | 53 | 75 | 0.0 | 1.0 | 0.00 | 0.00 | 0.00 | 59 | 1016.3 |
| 20260502054523 | 53 | 75 | 0.0 | 1.0 | 0.00 | 0.00 | 0.00 | 58 | 1016.3 |
| 20260502054022 | 54 | 75 | 0.0 | 1.0 | 0.00 | 0.00 | 0.00 | 57 | 1016.3 |
| 20260502053522 | 54 | 75 | 0.0 | 1.0 | 0.00 | 0.00 | 0.00 | 55 | 1016.3 |
| 20260502053022 | 55 | 75 | 0.0 | 0.0 | 0.00 | 0.00 | 0.00 | 54 | 1016.3 |
| 20260502052522 | 55 | 75 | 0.0 | 1.0 | 0.00 | 0.00 | 0.00 | 52 | 1016.3 |
| 20260502052022 | 55 | 75 | 0.0 | 1.0 | 0.00 | 0.00 | 0.00 | 52 | 1016.3 |
| 20260502051528 | 55 | 75 | 0.0 | 1.0 | 0.00 | 0.00 | 0.00 | 52 | 1016.4 |
| 20260502051021 | 55 | 75 | 0.0 | 1.0 | 0.00 | 0.00 | 0.00 | 52 | 1016.4 |
| 20260502050526 | 55 | 75 | 0.0 | 1.0 | 0.00 | 0.00 | 0.00 | 52 | 1016.4 |
| 20260502050035 | 55 | 75 | 0.0 | 1.0 | 0.00 | 0.00 | 0.00 | 52 | 1016.4 |
| 20260502045521 | 55 | 75 | 0.0 | 0.0 | 0.00 | 0.00 | 0.00 | 52 | 1016.5 |
| 20260502045027 | 55 | 75 | 0.0 | 1.0 | 0.00 | 0.00 | 0.00 | 51 | 1016.5 |
| 20260502044522 | 55 | 75 | 0.0 | 1.0 | 0.00 | 0.00 | 0.00 | 52 | 1016.5 |
| 20260502044026 | 56 | 75 | 0.0 | 1.0 | 0.00 | 0.00 | 0.00 | 52 | 1016.5 |
| 20260502043522 | 56 | 75 | 0.0 | 0.0 | 0.00 | 0.00 | 0.00 | 50 | 1016.5 |
| 20260502043020 | 57 | 75 | 0.0 | 0.0 | 0.00 | 0.00 | 0.00 | 48 | 1016.6 |
| 20260502042520 | 57 | 75 | 0.0 | 0.0 | 0.00 | 0.00 | 0.00 | 49 | 1016.5 |
| 20260502042023 | 58 | 75 | 0.0 | 0.0 | 0.00 | 0.00 | 0.00 | 46 | 1016.5 |
| 20260502041519 | 58 | 75 | 0.0 | 0.0 | 0.00 | 0.00 | 0.00 | 45 | 1016.5 |
| 20260502041020 | 58 | 75 | 0.0 | 1.0 | 0.00 | 0.00 | 0.00 | 45 | 1016.4 |
| 20260502040519 | 58 | 75 | 0.0 | 1.0 | 0.00 | 0.00 | 0.00 | 44 | 1016.4 |
| 20260502040019 | 58 | 75 | 0.0 | 1.0 | 0.00 | 0.00 | 0.00 | 45 | 1016.4 |
| 20260502035519 | 59 | 75 | 0.0 | 1.0 | 0.00 | 0.00 | 0.00 | 43 | 1016.3 |
| 20260502035019 | 59 | 75 | 0.0 | 1.0 | 0.00 | 0.00 | 0.00 | 42 | 1016.2 |
| 20260502034519 | 60 | 70 | 0.0 | 1.0 | 0.00 | 0.00 | 0.00 | 42 | 1016.2 |
| 20260502034019 | 60 | 61 | 0.0 | 1.0 | 0.00 | 0.00 | 0.00 | 42 | 1016.1 |
| 20260502033517 | 61 | 58 | 0.0 | 1.0 | 0.00 | 0.00 | 0.00 | 40 | 1016.1 |
| 20260502033022 | 61 | 58 | 0.0 | 1.0 | 0.00 | 0.00 | 0.00 | 40 | 1016.0 |
| 20260502032520 | 62 | 58 | 0.0 | 1.0 | 0.00 | 0.00 | 0.00 | 38 | 1016.0 |
| 20260502032017 | 62 | 58 | 0.0 | 1.0 | 0.00 | 0.00 | 0.00 | 38 | 1015.9 |
| 20260502031517 | 63 | 114 | 0.0 | 3.0 | 0.00 | 0.00 | 0.00 | 37 | 1015.8 |
| 20260502031017 | 63 | 127 | 1.0 | 3.0 | 0.00 | 0.00 | 0.00 | 35 | 1015.7 |
| 20260502030516 | 63 | 86 | 1.0 | 2.0 | 0.00 | 0.00 | 0.00 | 36 | 1015.7 |
| 20260502030017 | 64 | 105 | 1.0 | 2.0 | 0.00 | 0.00 | 0.00 | 35 | 1015.6 |
| 20260502025516 | 64 | 91 | 0.0 | 1.0 | 0.00 | 0.00 | 0.00 | 35 | 1015.6 |
| 20260502025018 | 65 | 91 | 0.0 | 1.0 | 0.00 | 0.00 | 0.00 | 33 | 1015.6 |
| 20260502024517 | 66 | 91 | 0.0 | 1.0 | 0.00 | 0.00 | 0.00 | 33 | 1015.5 |
| 20260502024016 | 67 | 89 | 0.0 | 1.0 | 0.00 | 0.00 | 0.00 | 33 | 1015.5 |
| 20260502023516 | 68 | 89 | 0.0 | 1.0 | 0.00 | 0.00 | 0.00 | 30 | 1015.5 |
| 20260502023116 | 68 | 89 | 0.0 | 1.0 | 0.00 | 0.00 | 0.00 | 28 | 1015.5 |
| 20260502022515 | 69 | 89 | 0.0 | 1.0 | 0.00 | 0.00 | 0.00 | 29 | 1015.5 |
| 20260502022017 | 69 | 89 | 0.0 | 1.0 | 0.00 | 0.00 | 0.00 | 28 | 1015.5 |
| 20260502021518 | 69 | 89 | 0.0 | 1.0 | 0.00 | 0.00 | 0.00 | 27 | 1015.6 |
| 20260502021017 | 70 | 89 | 0.0 | 1.0 | 0.00 | 0.00 | 0.00 | 25 | 1015.6 |
| 20260502020515 | 70 | 89 | 0.0 | 1.0 | 0.00 | 0.00 | 0.00 | 24 | 1015.6 |
| 20260502020014 | 71 | 89 | 0.0 | 1.0 | 0.00 | 0.00 | 0.00 | 24 | 1015.6 |
| 20260502015514 | 71 | 89 | 0.0 | 1.0 | 0.00 | 0.00 | 0.00 | 24 | 1015.6 |
| 20260502015017 | 71 | 89 | 0.0 | 1.0 | 0.00 | 0.00 | 0.00 | 21 | 1015.6 |
| 20260502014524 | 71 | 89 | 0.0 | 1.0 | 0.00 | 0.00 | 0.00 | 18 | 1015.6 |
| 20260502014012 | 72 | 89 | 0.0 | 1.0 | 0.00 | 0.00 | 0.00 | 19 | 1015.6 |
| 20260502013512 | 72 | 89 | 0.0 | 1.0 | 0.00 | 0.00 | 0.00 | 19 | 1015.7 |
| 20260502013012 | 72 | 89 | 0.0 | 1.0 | 0.00 | 0.00 | 0.00 | 17 | 1015.7 |
| 20260502012515 | 72 | 89 | 0.0 | 2.0 | 0.00 | 0.00 | 0.00 | 17 | 1015.7 |
| 20260502012011 | 72 | 89 | 0.0 | 2.0 | 0.00 | 0.00 | 0.00 | 17 | 1015.8 |
| 20260502011511 | 72 | 128 | 0.0 | 2.0 | 0.00 | 0.00 | 0.00 | 17 | 1015.8 |
| 20260502011012 | 72 | 131 | 1.0 | 2.0 | 0.00 | 0.00 | 0.00 | 18 | 1015.8 |
| 20260502010510 | 72 | 64 | 0.0 | 3.0 | 0.00 | 0.00 | 0.00 | 19 | 1015.8 |
| 20260502010010 | 72 | 93 | 0.0 | 3.0 | 0.00 | 0.00 | 0.00 | 19 | 1015.8 |
| 20260502005510 | 73 | 75 | 1.0 | 3.0 | 0.00 | 0.00 | 0.00 | 19 | 1015.8 |
| 20260502005010 | 73 | 108 | 1.0 | 3.0 | 0.00 | 0.00 | 0.00 | 19 | 1015.8 |
| 20260502004509 | 73 | 117 | 1.0 | 3.0 | 0.00 | 0.00 | 0.00 | 18 | 1015.9 |
| 20260502004008 | 74 | 62 | 1.0 | 3.0 | 0.00 | 0.00 | 0.00 | 17 | 1015.9 |
| 20260502003508 | 74 | 64 | 0.0 | 3.0 | 0.00 | 0.00 | 0.00 | 17 | 1016.0 |
| 20260502003006 | 74 | 64 | 0.0 | 3.0 | 0.00 | 0.00 | 0.00 | 17 | 1016.0 |
| 20260502002506 | 74 | 137 | 1.0 | 4.0 | 0.00 | 0.00 | 0.00 | 17 | 1016.1 |
| 20260502002007 | 74 | 103 | 2.0 | 5.0 | 0.00 | 0.00 | 0.00 | 18 | 1016.1 |
| 20260502001505 | 74 | 60 | 1.0 | 3.0 | 0.00 | 0.00 | 0.00 | 17 | 1016.1 |
| 20260502001005 | 74 | 129 | 0.0 | 3.0 | 0.00 | 0.00 | 0.00 | 17 | 1016.2 |
| 20260502000504 | 75 | 109 | 0.0 | 3.0 | 0.00 | 0.00 | 0.00 | 17 | 1016.2 |
| 20260502000004 | 75 | 111 | 1.0 | 4.0 | 0.00 | 0.00 | 0.00 | 18 | 1016.2 |
| 20260501235504 | 75 | 105 | 2.0 | 4.0 | 0.00 | 0.00 | 0.00 | 18 | 1016.2 |